Wahpeton, MN

7:25 PM CDT on August 21, 2017 (GMT -0500)
Stern

Weather History for KBWP - July, 2013

Change the Weather History Date:

Friday, July 26, 2013

  Actual Average (KFFM) Record (KFFM)
Temperature  
Mean Temperature 60 °F -  
Max Temperature 69 °F 80 °F 95 °F (1954)
Min Temperature 50 °F 60 °F 45 °F (1962)
Degree Days  
Heating Degree Days 6    
Growing Degree Days 10 (Base 50)    
Moisture  
Dew Point 46 °F    
Average Humidity 65    
Maximum Humidity 94    
Minimum Humidity 33    
Precipitation  
Precipitation 0.00 in - - ()
Sea Level Pressure  
Sea Level Pressure 30.10 in    
Wind  
Wind Speed 12 mph (NNW)    
Max Wind Speed 22 mph    
Max Gust Speed 30 mph    
Visibility 10 miles    
Events      
Averages and records for this station are not official NWS values.
T = Trace of Precipitation, MM = Missing Value Source: NWS Daily Summary

Daily Weather History Graph

Daily Weather History Graph

Search for Another Location

Airport or City:

Trip Planner

Search our weather history database for the weather conditions in past years. The results will help you decide how hot, cold, wet, or windy it might be!

Date:

Astronomy

Jul. 26, 2013 Rise Set
Actual Time 6:01 AM CDT 9:03 PM CDT
Civil Twilight 5:25 AM CDT 9:39 PM CDT
Nautical Twilight 4:39 AM CDT 10:24 PM CDT
Astronomical Twilight 3:44 AM CDT 11:19 PM CDT
Moon 10:57 PM CDT (7/26) 10:58 AM CDT (7/26)
Length of Visible Light 16h 13m
Length of Day
15h 02m
Waning Gibbous, 80% of the Moon is Illuminated
Jul 26
Waning Gibbous
Jul 29
Last Quarter
Aug 6
New
Aug 14
First Quarter
Aug 20
Full

Hourly Weather History & Observations

Time (CDT) Temp. Dew Point Humidity Pressure Visibility Wind Dir Wind Speed Gust Speed Precip Events Conditions
12:15 AM 53.6 °F 48.2 °F 82% 29.99 in 10.0 mi WNW 5.8 mph - N/A   Clear
12:35 AM 53.6 °F 48.2 °F 82% 30.00 in 10.0 mi West 8.1 mph - N/A   Clear
12:55 AM 53.6 °F 48.2 °F 82% 30.00 in 10.0 mi WNW 8.1 mph - N/A   Clear
1:15 AM 51.8 °F 48.2 °F 88% 30.00 in 10.0 mi WNW 5.8 mph - N/A   Clear
1:35 AM 51.8 °F 48.2 °F 88% 30.01 in 10.0 mi WNW 6.9 mph - N/A   Clear
1:55 AM 51.8 °F 48.2 °F 88% 30.01 in 10.0 mi NW 9.2 mph - N/A   Scattered Clouds
2:15 AM 55.4 °F 51.8 °F 88% 30.01 in 10.0 mi NW 10.4 mph - N/A   Mostly Cloudy
2:35 AM 55.4 °F 50.0 °F 82% 30.01 in 10.0 mi NW 9.2 mph - N/A   Mostly Cloudy
2:55 AM 53.6 °F 50.0 °F 88% 30.01 in 10.0 mi NW 9.2 mph - N/A   Mostly Cloudy
3:15 AM 53.6 °F 50.0 °F 88% 30.01 in 10.0 mi NW 9.2 mph - N/A   Clear
3:35 AM 53.6 °F 50.0 °F 88% 30.01 in 10.0 mi NW 9.2 mph - N/A   Mostly Cloudy
3:55 AM 53.6 °F 50.0 °F 88% 30.01 in 10.0 mi WNW 11.5 mph - N/A   Mostly Cloudy
4:15 AM 53.6 °F 50.0 °F 88% 30.02 in 10.0 mi NW 12.7 mph - N/A   Mostly Cloudy
4:35 AM 55.4 °F 50.0 °F 82% 30.01 in 10.0 mi WNW 15.0 mph - N/A   Overcast
4:55 AM 55.4 °F 50.0 °F 82% 30.01 in 10.0 mi NW 16.1 mph - N/A   Overcast
5:15 AM 55.4 °F 50.0 °F 82% 30.02 in 7.0 mi NW 18.4 mph 21.9 mph N/A   Overcast
5:35 AM 53.6 °F 51.8 °F 94% 30.02 in 5.0 mi NW 16.1 mph - N/A   Overcast
5:55 AM 53.6 °F 51.8 °F 94% 30.03 in 7.0 mi NW 13.8 mph - N/A   Overcast
6:15 AM 55.4 °F 51.8 °F 88% 30.03 in 7.0 mi NNW 15.0 mph 21.9 mph N/A   Overcast
6:35 AM 55.4 °F 51.8 °F 88% 30.04 in 10.0 mi NNW 15.0 mph 21.9 mph N/A   Overcast
6:55 AM 55.4 °F 51.8 °F 88% 30.05 in 10.0 mi NNW 13.8 mph 24.2 mph N/A   Overcast
7:15 AM 55.4 °F 51.8 °F 88% 30.06 in 10.0 mi NNW 17.3 mph 24.2 mph N/A   Overcast
7:35 AM 55.4 °F 51.8 °F 88% 30.07 in 10.0 mi NNW 15.0 mph 23.0 mph N/A   Overcast
7:55 AM 55.4 °F 50.0 °F 82% 30.08 in 10.0 mi North 18.4 mph 25.3 mph N/A   Overcast
8:15 AM 55.4 °F 50.0 °F 82% 30.09 in 10.0 mi North 21.9 mph 28.8 mph N/A   Overcast
8:35 AM 55.4 °F 50.0 °F 82% 30.10 in 10.0 mi North 15.0 mph 24.2 mph N/A   Overcast
8:55 AM 55.4 °F 50.0 °F 82% 30.11 in 10.0 mi North 16.1 mph 24.2 mph N/A   Overcast
9:15 AM 57.2 °F 48.2 °F 72% 30.11 in 10.0 mi North 18.4 mph 28.8 mph N/A   Overcast
9:35 AM 57.2 °F 48.2 °F 72% 30.12 in 10.0 mi NNW 15.0 mph 21.9 mph N/A   Overcast
9:55 AM 59.0 °F 50.0 °F 72% 30.13 in 10.0 mi North 15.0 mph 20.7 mph N/A   Overcast
10:15 AM 59.0 °F 50.0 °F 72% 30.13 in 10.0 mi NNW 17.3 mph 24.2 mph N/A   Overcast
10:35 AM 62.6 °F 48.2 °F 59% 30.14 in 10.0 mi North 20.7 mph 27.6 mph N/A   Mostly Cloudy
10:55 AM 62.6 °F 48.2 °F 59% 30.15 in 10.0 mi North 18.4 mph 29.9 mph N/A   Mostly Cloudy
11:15 AM 62.6 °F 46.4 °F 55% 30.15 in 10.0 mi North 19.6 mph 27.6 mph N/A   Mostly Cloudy
11:35 AM 62.6 °F 46.4 °F 55% 30.15 in 10.0 mi North 20.7 mph 28.8 mph N/A   Mostly Cloudy
11:55 AM 62.6 °F 46.4 °F 55% 30.14 in 10.0 mi North 19.6 mph 28.8 mph N/A   Mostly Cloudy
12:15 PM 66.2 °F 46.4 °F 49% 30.14 in 10.0 mi North 13.8 mph 24.2 mph N/A   Scattered Clouds
12:35 PM 68.0 °F 46.4 °F 46% 30.14 in 10.0 mi NNE 18.4 mph 25.3 mph N/A   Scattered Clouds
12:55 PM 66.2 °F 46.4 °F 49% 30.15 in 10.0 mi North 16.1 mph 25.3 mph N/A   Scattered Clouds
1:15 PM 68.0 °F 44.6 °F 43% 30.15 in 10.0 mi North 12.7 mph 25.3 mph N/A   Scattered Clouds
1:35 PM 68.0 °F 44.6 °F 43% 30.15 in 10.0 mi North 19.6 mph 25.3 mph N/A   Mostly Cloudy
1:55 PM 68.0 °F 42.8 °F 40% 30.15 in 10.0 mi North 17.3 mph 20.7 mph N/A   Mostly Cloudy
2:15 PM 68.0 °F 44.6 °F 43% 30.15 in 10.0 mi NNW 16.1 mph 23.0 mph N/A   Scattered Clouds
2:35 PM 68.0 °F 42.8 °F 40% 30.15 in 10.0 mi NNW 16.1 mph 23.0 mph N/A   Scattered Clouds
2:55 PM 68.0 °F 42.8 °F 40% 30.16 in 10.0 mi NNW 15.0 mph 24.2 mph N/A   Scattered Clouds
3:15 PM 68.0 °F 41.0 °F 37% 30.15 in 10.0 mi NNW 13.8 mph 24.2 mph N/A   Scattered Clouds
3:35 PM 68.0 °F 41.0 °F 37% 30.15 in 10.0 mi NNW 16.1 mph 24.2 mph N/A   Mostly Cloudy
3:55 PM 68.0 °F 41.0 °F 37% 30.15 in 10.0 mi NNW 17.3 mph 23.0 mph N/A   Scattered Clouds
4:15 PM 69.8 °F 41.0 °F 35% 30.15 in 10.0 mi North 18.4 mph 28.8 mph N/A   Mostly Cloudy
4:35 PM 66.2 °F 41.0 °F 40% 30.15 in 10.0 mi North 18.4 mph 26.5 mph N/A   Scattered Clouds
4:55 PM 68.0 °F 41.0 °F 37% 30.15 in 10.0 mi NNW 16.1 mph 23.0 mph N/A   Scattered Clouds
5:15 PM 69.8 °F 39.2 °F 33% 30.14 in 10.0 mi NNW 13.8 mph 23.0 mph N/A   Scattered Clouds
5:35 PM 68.0 °F 41.0 °F 37% 30.14 in 10.0 mi North 15.0 mph 21.9 mph N/A   Scattered Clouds
5:55 PM 68.0 °F 41.0 °F 37% 30.14 in 10.0 mi North 17.3 mph 24.2 mph N/A   Scattered Clouds
6:15 PM 66.2 °F 41.0 °F 40% 30.14 in 10.0 mi North 15.0 mph 26.5 mph N/A   Scattered Clouds
6:35 PM 68.0 °F 42.8 °F 40% 30.13 in 10.0 mi North 13.8 mph 19.6 mph N/A   Scattered Clouds
6:55 PM 64.4 °F 44.6 °F 49% 30.14 in 10.0 mi North 13.8 mph 19.6 mph N/A   Mostly Cloudy
7:15 PM 66.2 °F 42.8 °F 43% 30.14 in 10.0 mi NNE 18.4 mph 21.9 mph N/A   Scattered Clouds
7:35 PM 64.4 °F 42.8 °F 45% 30.15 in 10.0 mi North 10.4 mph - N/A   Scattered Clouds
7:55 PM 62.6 °F 44.6 °F 52% 30.15 in 10.0 mi North 12.7 mph 18.4 mph N/A   Scattered Clouds
8:15 PM 60.8 °F 44.6 °F 55% 30.15 in 10.0 mi North 10.4 mph 16.1 mph N/A   Scattered Clouds
8:35 PM 62.6 °F 44.6 °F 52% 30.15 in 10.0 mi North 10.4 mph 16.1 mph N/A   Mostly Cloudy
8:55 PM 60.8 °F 44.6 °F 55% 30.15 in 10.0 mi North 6.9 mph - N/A   Mostly Cloudy
9:15 PM 59.0 °F 44.6 °F 59% 30.15 in 10.0 mi NNE 6.9 mph - N/A   Scattered Clouds
9:35 PM 55.4 °F 44.6 °F 67% 30.16 in 10.0 mi NNE 5.8 mph - N/A   Clear
9:55 PM 55.4 °F 44.6 °F 67% 30.16 in 10.0 mi NNE 5.8 mph - N/A   Clear
10:15 PM 55.4 °F 44.6 °F 67% 30.16 in 10.0 mi North 5.8 mph - N/A   Clear
10:35 PM 53.6 °F 44.6 °F 72% 30.16 in 10.0 mi North 5.8 mph - N/A   Clear
10:55 PM 53.6 °F 44.6 °F 72% 30.16 in 10.0 mi North 4.6 mph - N/A   Clear
11:15 PM 51.8 °F 44.6 °F 76% 30.16 in 10.0 mi North 4.6 mph - N/A   Clear
11:35 PM 50.0 °F 44.6 °F 82% 30.16 in 10.0 mi NNW 4.6 mph - N/A   Scattered Clouds
11:55 PM 50.0 °F 44.6 °F 82% 30.17 in 10.0 mi NNW 4.6 mph - N/A   Scattered Clouds